Погода в Каунасе

Погода в Каунасе : погода сейчас, прогноз погоды и архив. Всё, что Вы хотите узнать о погоде в Каунасе!

Поиск расширенной информации на нашем сайте:

Другие новости

Новости СМИ2

Главная страница сайта

Новости сайта

03.07.2017

Напоминаем, что на нашем специализированном сайте Метеоцентр.Азия вы можете получить высокодетализированные автоматические прогнозы погоды по пунктам России, СНГ и мира в авиационном формате (включающие направление и скорость ветра, видимость, явления погоды, количество и форму облачности, нижнюю и верхнюю границу облачности).

Рекомендуем: застройщик продает. квартиры в Новостройках от застройщика в Новосибирске. новостройки дешево

Погода в Каунасе - сегодня

Время (UTC), дата Ветер
(°,м/с) 
Видим.   Явления Облачность Т
(°С)
Тd
(°С)
f(%) Тe
(°С)
Pmin
(гПа)
dP
(гПа)
Po
(мм)
O2
(г/м3)
Тmin Tmax R s Состояние
почвы
21 20.09.18 200 (Ю) 3-4{04}  16000 м    3/0 верхняя 
[Ci fib]
+17.7 +13.4 76 +24  1016  -0.6  755  283           
00 21.09.18 230 (ЮЗ) 2-3{05}  19000 м    ясно 
+17.7 +12.9 73 +24  1016.3  0.2  755  283           
03 21.09.18 тихо () -2{03}  7000 м  дымка  3/0 средняя 
[Ac trans]
+13.6 +12.8 95 +19  1016.6  0.2  755  287           
06 21.09.18 160 (Ю) 3-3{03}  9000 м  дымка  6/4 1500 м верхняя 
[Cu med, cong|Ci fib]
+16 +15 94 +24  1016.1  -0.4  755  284  +12.9        сухая 
09 21.09.18 190 (Ю) 5-7{07}  17000 м    4/0 средняя, верхняя 
[Ac trans|Ci fib]
+23.9 +14.3 55 +31  1015.1  -0.7  755  277           
12 21.09.18 200 (Ю) 8-11{11}  18000 м    6/0 верхняя 
[Ci fib]
+26.3 +11.7 40 +30  1013.4  -1.7  753  275           
15 21.09.18 170 (Ю) 7-9{12}  19000 м    4/0 верхняя 
[Ci fib]
+24.8 +9.4 38 +25  1010.9  -2.5  752  276           
18 21.09.18 160 (Ю) 4-5{11}  20000 м    1/0 верхняя 
[Ci fib]
+19 +10.5 58 +21  1008.8  -2.2  750  281    +26.8       
21 21.09.18 180 (Ю) 5-8{08}  20000 м    8/0 верхняя 
[Ci sp]
+18.8 +10.6 59 +21  1006.4  -2.4  748  280           
00 22.09.18 180 (Ю) 7-9{11}  20000 м    3/0 верхняя 
[Ci fib]
+18.4 +11.1 62 +21  1004.2  -2.2  746  280           
03 22.09.18 300 (СЗ) 5-9{12}  20000 м    10/10 1020 м 
[Sc]
+15.4 +11.1 76 +18  1006.9  2.6  748  283           
06 22.09.18 260 (З) 5-8{10}  20000 м  в посл. час дождь  10/5 360 м средняя 
[Sc|Ac As]
+12.3 +11 92 +13  1009.7  2.6  750  287  +12.3      влажная 
09 22.09.18 250 (З) 4-7{10}  20000 м    10/3 480 м средняя 
[Sc|Ac As]
+12 +9 82 +11  1011.5  1.8  752  289           
12 22.09.18 250 (З) 6-10{10}  20000 м    9/4 1080 м средняя, верхняя 
[Cu Sc|Ac lent|Ci fib]
+14.8 +7.8 63 +14  1011.9  0.9  752  286           
15 22.09.18 290 (З) 4-8{12}  20000 м  в посл. час ливневой дождь  9/5 1000 м кучево-дожд., средняя 
[Cb calv|Ac trans]
+12.4 +8 74 +12  1012.1  0.1  752  289           
18 22.09.18 260 (З) 2-4{08}  20000 м  {ливн. осадки}  3/0 средняя 
[Ac lent]
+10.2 +6.8 79 +10  1012.9  0.7  753  291    +16  0.0     
21 22.09.18 230 (ЮЗ) 3-4{06}  20000 м    1/0 верхняя 
[Ci fib]
+8.5 +5.5 81 +8  1012.1  -0.8  752  293           
00 23.09.18 230 (ЮЗ) 5-7{08}  20000 м    8/4 2000 м средняя, верхняя 
[Ac As|Ci sp]
+9.2 +5.6 78 +8  1011.3  -0.8  751  292           
03 23.09.18 230 (ЮЗ) 4-5{08}  20000 м    8/1 870 м средняя, верхняя 
[Sc|Ac As|Ci fib]
+8.2 +5.9 85 +7  1010.4  -0.9  751  293           
06 23.09.18 220 (ЮЗ) 4-8{08}  19000 м    3/0 средняя, верхняя 
[Ac lent|Ci fib]
+9.1 +6.5 84 +8  1009.8  -0.6  750  291  +7.3        сухая 
09 23.09.18 250 (З) 6-10{13}  20000 м    9/6 840 м средняя, верхняя 
[Cu Sc|Ac trans|Ci fib]
+12.9 +6.7 66 +12  1009.7  0.1  750  288           
12 23.09.18 340 (С) 3-6{10}  20000 м  {ливн. осадки}  9/8 1260 м средняя 
[Cu Sc|Ac trans]
+12.1 +5.1 62 +12  1009.9  0.1  750  289      0.0     
15 23.09.18 320 (СЗ) 2-4{09}  20000 м  в посл. час ливневой дождь  5/4 1500 м средняя 
[Cu med, cong|Ac cuf]
+10.5 +7.1 79 +11  1009.1  -0.8  750  290           
18 23.09.18 170 (Ю) 1-2{06}  20000 м  {ливн. осадки}  8/3 1350 м средняя, верхняя 
[Sc diur, vesp|Ac cuf|Cs]
+7.7 +7 95 +9  1008.3  -0.9  749  292    +15.7     
21 23.09.18 170 (Ю) 2-3{05}  20000 м    10/0 средняя 
[Ac As]
+7.9 +7.4 97 +8  1005.9  -2.4  747  291           
Время (UTC), дата Ветер
(°,м/с) 
Видим.   Явления Облачность Т
(°С)
Тd
(°С)
f(%) Тe
(°С)
Pmin
(гПа)
dP
(гПа)
Po
(мм)
O2
(г/м3)
Тmin Tmax R s Состояние
почвы

Для получения пояснительной информации подведите курсор к названию столбца.

ПОГОДА в Каунасе - архив

Всё, что Вы хотите узнать о погоде в Каунасе - удобно и подробно!

Выберите нужную дату (начиная с 1 января 2015* года) и нажмите кнопку "Найти".
Будут отображены архивные сводки погоды по пункту Каунас, начиная с указанной даты.


Отображать данные в формате CSV (для использования в таблицах Excel)


Внимание! Наш архив погоды предназначен исключительно для личного некоммерческого использования в познавательных целях. Если Вам необходимы официальные справки о состоянии погоды (для производственных, юридических, коммерческих и т.п. целей), обращайтесь в органы Росгидромета.

*Примечание: данная дата относится к архиву по метеостанциям СССР (Россия, СНГ, Балтия).
Архив по метеостанциям Зарубежной Европы и Азии (кроме Китая) хранится 10 дней, по другим регионам земного шара (Китай, Африка, Америка, Австралия, Океания) - 1 день.

Каунас - район местоположения метеостанции


Название, широта, долгота, высота метеостанции:
Каунас 54.9°ш. 23.8°д. 77 м над ур. моря [Литва]

Дополнительная информация

В oтличие oт бoльшинства пoгoдных сайтoв мы публикуем пoдрoбную метеoинфoрмацию в детальнoм прoфессиoнальнoм фoрмате.

Характеристики температуры и влажнoсти вoздуха измеряются на высoте 2 м в тени вдали oт зданий и деревьев.
Скoрoсть ветра измеряется на высoте 10 м (на урoвне рoста челoвека скoрoсть ветра ниже в 1.5-2 раза). Если метеoстанция нахoдится в гoрoде или в лесу, тo скoрoсть ветра занижена на 2-4 м/с пo сравнению с oткрытым местoм. Скoрoсть ветра над акватoриями крупных рек и oзёр, а также на вершинах хoлмoв на 2-5 м/с выше, чем в oбычных услoвиях.
Атмoсфернoе давление в разных тoчках местнoсти мoжет значительнo oтличаться oт давления на метеoстанции, в зависимoсти oт услoвий рельефа (при пoдъёме на 10 м давление пoнижается примернo на 1 мм рт.ст.).